Terminal Aerodrome Forecast
Issued by NWS

Home | Current Version | Previous Version | Text Only | Print | Product List | Glossary On
Versions: 1 2 3 4 5 6 7 8 9 10 11 12 13 14 15 16 17 18 19 20 21 22
000
FTUS42 KKEY 010533
TAFMTH
TAF
KMTH 010533Z 0106/0206 07011G18KT P6SM SCT020 SCT030
     FM011500 10010G17KT P6SM FEW018=

USA.gov is the U.S. government's official web portal to all federal, state and local government web resources and services.